Bellaire, MI

10:28 AM EST on January 22, 2018 (GMT -0500)
Antrim County

Weather History for KACB - October, 2011

Change the Weather History Date:

Sunday, October 23, 2011

  Actual Average (KCVX) Record (KCVX)
Temperature  
Mean Temperature 44 °F -  
Max Temperature 59 °F 53 °F 84 °F (2001)
Min Temperature 30 °F 39 °F 28 °F (2008)
Degree Days  
Heating Degree Days 20    
Moisture  
Dew Point 34 °F    
Average Humidity 78    
Maximum Humidity 100    
Minimum Humidity 39    
Precipitation  
Precipitation 0.00 in - - ()
Sea Level Pressure  
Sea Level Pressure 29.94 in    
Wind  
Wind Speed 1 mph (SW)    
Max Wind Speed 7 mph    
Max Gust Speed -    
Visibility 7 miles    
Events Fog    
Averages and records for this station are not official NWS values.
T = Trace of Precipitation, MM = Missing Value Source: NWS Daily Summary

Daily Weather History Graph

Daily Weather History Graph

Search for Another Location

Airport or City:

Trip Planner

Search our weather history database for the weather conditions in past years. The results will help you decide how hot, cold, wet, or windy it might be!

Date:

Astronomy

Oct. 23, 2011 Rise Set
Actual Time 8:06 AM EDT 6:42 PM EDT
Civil Twilight 7:36 AM EDT 7:12 PM EDT
Nautical Twilight 7:02 AM EDT 7:47 PM EDT
Astronomical Twilight 6:28 AM EDT 8:20 PM EDT
Moon 4:03 AM EDT (10/23) 4:40 PM EDT (10/23)
Length of Visible Light 11h 36m
Length of Day
10h 36m
Waning Crescent, 14% of the Moon is Illuminated
Oct 23
Waning Crescent
Oct 26
New
Nov 2
First Quarter
Nov 10
Full
Nov 18
Last Quarter

Hourly Weather History & Observations

Time (EDT) Temp. Windchill Dew Point Humidity Pressure Visibility Wind Dir Wind Speed Gust Speed Precip Events Conditions
12:10 AM 32.0 °F - 32.0 °F 100% 30.01 in 7.0 mi Calm Calm - N/A   Clear
12:30 AM 32.0 °F - 32.0 °F 100% 30.01 in 4.0 mi Calm Calm - N/A   Clear
12:51 AM 32.0 °F - 32.0 °F 100% 30.01 in 3.0 mi Calm Calm - N/A   Clear
1:10 AM 32.0 °F - 32.0 °F 100% 30.01 in 2.0 mi Calm Calm - N/A   Scattered Clouds
1:30 AM 32.0 °F - 32.0 °F 100% 30.01 in 5.0 mi Calm Calm - N/A   Clear
1:50 AM 32.0 °F - 30.2 °F 93% 30.00 in 5.0 mi Calm Calm - N/A   Clear
2:10 AM 32.0 °F - 30.2 °F 93% 30.00 in 4.0 mi Calm Calm - N/A   Clear
2:30 AM 32.0 °F - 30.2 °F 93% 30.00 in 5.0 mi Calm Calm - N/A   Clear
2:50 AM 32.0 °F - 30.2 °F 93% 30.00 in 4.0 mi Calm Calm - N/A   Clear
3:30 AM 30.2 °F - 30.2 °F 100% 29.99 in 7.0 mi Calm Calm - N/A   Mostly Cloudy
3:50 AM 30.2 °F - 30.2 °F 100% 29.98 in 5.0 mi Calm Calm - N/A   Mostly Cloudy
4:10 AM 30.2 °F - 30.2 °F 100% 29.98 in 5.0 mi Calm Calm - N/A   Clear
4:30 AM 30.2 °F - 30.2 °F 100% 29.98 in 2.5 mi Calm Calm - N/A   Scattered Clouds
4:50 AM 32.0 °F - 30.2 °F 93% 29.97 in 3.0 mi Calm Calm - N/A   Mostly Cloudy
5:10 AM 32.0 °F - 32.0 °F 100% 29.97 in 7.0 mi Calm Calm - N/A   Overcast
5:30 AM 33.8 °F - 32.0 °F 93% 29.97 in 7.0 mi Calm Calm - N/A   Overcast
5:50 AM 33.8 °F - 32.0 °F 93% 29.97 in 0.8 mi Calm Calm - N/A   Overcast
6:10 AM 35.6 °F - 33.8 °F 93% 29.97 in 0.2 mi Calm Calm - N/A Fog Fog
6:30 AM 35.6 °F - 33.8 °F 93% 29.97 in 0.2 mi Calm Calm - N/A Fog Fog
6:50 AM 35.6 °F - 33.8 °F 93% 29.97 in 1.0 mi Calm Calm - N/A   Overcast
7:10 AM 33.8 °F - 32.0 °F 93% 29.97 in 0.8 mi Calm Calm - N/A   Overcast
7:30 AM 33.8 °F - 32.0 °F 93% 29.97 in 5.0 mi Calm Calm - N/A   Overcast
7:50 AM 32.0 °F - 32.0 °F 100% 29.97 in 7.0 mi Calm Calm - N/A   Scattered Clouds
8:10 AM 32.0 °F - 32.0 °F 100% 29.97 in 5.0 mi Calm Calm - N/A   Clear
8:30 AM 32.0 °F - 30.2 °F 93% 29.96 in 2.0 mi Calm Calm - N/A   Clear
8:50 AM 32.0 °F - 32.0 °F 100% 29.96 in 3.0 mi Calm Calm - N/A   Clear
9:10 AM 32.0 °F - 32.0 °F 100% 29.96 in 5.0 mi Calm Calm - N/A   Clear
9:30 AM 33.8 °F - 33.8 °F 100% 29.96 in 7.0 mi Calm Calm - N/A   Clear
9:50 AM 37.4 °F - 35.6 °F 93% 29.96 in 7.0 mi Calm Calm - N/A   Clear
10:10 AM 39.2 °F - 37.4 °F 93% 29.95 in 10.0 mi Calm Calm - N/A   Clear
10:50 AM 44.6 °F - 39.2 °F 81% 29.94 in 10.0 mi Calm Calm - N/A   Scattered Clouds
11:10 AM 46.4 °F - 39.2 °F 76% 29.93 in 10.0 mi Calm Calm - N/A   Clear
11:30 AM 50.0 °F - 41.0 °F 71% 29.93 in 10.0 mi Calm Calm - N/A   Clear
11:50 AM 51.8 °F - 39.2 °F 62% 29.92 in 10.0 mi SW 4.6 mph - N/A   Scattered Clouds
12:10 PM 55.4 °F - 37.4 °F 51% 29.92 in 10.0 mi South 3.5 mph - N/A   Scattered Clouds
12:30 PM 55.4 °F - 37.4 °F 51% 29.92 in 10.0 mi SSW 4.6 mph - N/A   Clear
12:50 PM 55.4 °F - 41.0 °F 58% 29.91 in 10.0 mi SW 3.5 mph - N/A   Scattered Clouds
1:10 PM 55.4 °F - 37.4 °F 51% 29.90 in 10.0 mi West 3.5 mph - N/A   Clear
1:30 PM 55.4 °F - 37.4 °F 51% 29.90 in 10.0 mi Calm Calm - N/A   Clear
1:50 PM 55.4 °F - 37.4 °F 51% 29.89 in 10.0 mi SSW 3.5 mph - N/A   Clear
2:09 PM 55.4 °F - 37.4 °F 51% 29.88 in 10.0 mi SSW 5.8 mph - N/A   Clear
2:30 PM 57.2 °F - 35.6 °F 44% 29.87 in 10.0 mi SW 5.8 mph - N/A   Clear
2:50 PM 57.2 °F - 35.6 °F 44% 29.87 in 10.0 mi SW 3.5 mph - N/A   Clear
3:10 PM 59.0 °F - 35.6 °F 42% 29.87 in 10.0 mi West 3.5 mph - N/A   Clear
3:30 PM 59.0 °F - 37.4 °F 45% 29.86 in 10.0 mi West 4.6 mph - N/A   Clear
3:50 PM 57.2 °F - 35.6 °F 44% 29.85 in 10.0 mi WSW 4.6 mph - N/A   Clear
4:10 PM 59.0 °F - 35.6 °F 42% 29.85 in 10.0 mi WSW 6.9 mph - N/A   Clear
4:30 PM 59.0 °F - 33.8 °F 39% 29.85 in 10.0 mi Calm Calm - N/A   Clear
4:50 PM 57.2 °F - 33.8 °F 41% 29.85 in 10.0 mi SW 3.5 mph - N/A   Clear
5:10 PM 55.4 °F - 37.4 °F 51% 29.84 in 10.0 mi West 3.5 mph - N/A   Clear
5:30 PM 53.6 °F - 39.2 °F 58% 29.84 in 10.0 mi Calm Calm - N/A   Mostly Cloudy
5:50 PM 53.6 °F - 39.2 °F 58% 29.84 in 10.0 mi Calm Calm - N/A   Overcast
6:10 PM 53.6 °F - 39.2 °F 58% 29.85 in 10.0 mi Calm Calm - N/A   Overcast
6:30 PM 51.8 °F - 41.0 °F 67% 29.83 in 10.0 mi Calm Calm - N/A   Overcast
6:50 PM 50.0 °F - 41.0 °F 71% 29.83 in 10.0 mi Calm Calm - N/A   Overcast
7:10 PM 50.0 °F - 41.0 °F 71% 29.83 in 10.0 mi Calm Calm - N/A   Overcast
7:30 PM 50.0 °F - 41.0 °F 71% 29.81 in 10.0 mi Calm Calm - N/A   Overcast
7:50 PM 48.2 °F - 42.8 °F 82% 29.83 in 10.0 mi Calm Calm - N/A   Overcast
8:10 PM 50.0 °F - 41.0 °F 71% 29.83 in 10.0 mi Calm Calm - N/A   Overcast
8:30 PM 48.2 °F - 41.0 °F 76% 29.82 in 10.0 mi ESE 3.5 mph - N/A   Mostly Cloudy
8:50 PM 46.4 °F - 41.0 °F 81% 29.81 in 10.0 mi Calm Calm - N/A   Mostly Cloudy
9:10 PM 46.4 °F - 41.0 °F 81% 29.80 in 10.0 mi Calm Calm - N/A   Overcast
9:30 PM 46.4 °F - 42.8 °F 87% 29.80 in 10.0 mi Calm Calm - N/A Rain Rain
10:10 PM 44.6 °F - 42.8 °F 93% 29.79 in 10.0 mi Calm Calm - N/A   Overcast
10:30 PM 44.6 °F - 42.8 °F 93% 29.79 in 10.0 mi Calm Calm - N/A   Overcast
10:50 PM 44.6 °F - 44.6 °F 100% 29.79 in 7.0 mi Calm Calm - N/A   Unknown
11:29 PM 46.4 °F 44.3 °F 42.8 °F 87% 29.76 in 10.0 mi SSE 4.6 mph - N/A Rain Light Rain
11:50 PM 46.4 °F - 42.8 °F 87% 29.75 in 10.0 mi Calm Calm - N/A   Overcast